Hourly Weather Kabanbay

Today, 8 March, Monday

Time Temperature Precipitation Wind Pressure Humidity
00:00 -1°C° 0 mm 1 mps 704 mmHg 60%
01:00 -1°C° 0 mm 1 mps 703 mmHg 59%
02:00 -3°C° 0 mm 2 mps 703 mmHg 57%
03:00 -3°C° 0 mm 2 mps 703 mmHg 56%
04:00 -2°C° 0 mm 2 mps 703 mmHg 55%
05:00 -2°C° 0 mm 2 mps 703 mmHg 54%
06:00 -1°C° 0 mm 2 mps 704 mmHg 60%
07:00 +1°C° 0 mm 2 mps 704 mmHg 65%
08:00 +2°C° 0 mm 2 mps 705 mmHg 70%
09:00 +3°C° 0.1 mm 2 mps 705 mmHg 79%
10:00 +4°C° 0.1 mm 1 mps 705 mmHg 87%
11:00 +4°C° 0 mm 1 mps 705 mmHg 96%
12:00 +4°C° 0.1 mm 1 mps 705 mmHg 97%
13:00 +4°C° 0.1 mm 1 mps 705 mmHg 98%
14:00 +3°C° 0.1 mm 2 mps 705 mmHg 99%
15:00 +3°C° 0.3 mm 2 mps 706 mmHg 99%
16:00 +3°C° 0.3 mm 2 mps 707 mmHg 99%
17:00 +3°C° 0.3 mm 2 mps 707 mmHg 99%
18:00 +3°C° 0.2 mm 2 mps 708 mmHg 97%
19:00 +3°C° 0.2 mm 2 mps 708 mmHg 95%
20:00 +3°C° 0.2 mm 2 mps 709 mmHg 92%
21:00 +3°C° 0.1 mm 2 mps 709 mmHg 91%
22:00 +3°C° 0.1 mm 2 mps 709 mmHg 89%
23:00 +3°C° 0.1 mm 2 mps 709 mmHg 87%

Tomorrow, 9 March, Tuesday

Time Temperature Precipitation Wind Pressure Humidity
00:00 +3°C° 0 mm 2 mps 709 mmHg 88%
01:00 +4°C° 0 mm 1 mps 709 mmHg 89%
02:00 +4°C° 0 mm 1 mps 709 mmHg 90%
03:00 +3°C° 0 mm 1 mps 709 mmHg 89%
04:00 +3°C° 0 mm 1 mps 709 mmHg 88%
05:00 +3°C° 0 mm 1 mps 709 mmHg 87%
06:00 +3°C° 0 mm 1 mps 709 mmHg 86%
07:00 +3°C° 0 mm 1 mps 709 mmHg 85%
08:00 +4°C° 0 mm 1 mps 709 mmHg 83%
09:00 +4°C° 0 mm 1 mps 708 mmHg 89%
10:00 +4°C° 0 mm 1 mps 708 mmHg 94%
11:00 +4°C° 0 mm 1 mps 708 mmHg 99%
12:00 +4°C° 0 mm 1 mps 707 mmHg 99%
13:00 +4°C° 0 mm 1 mps 707 mmHg 99%
14:00 +4°C° 0 mm 1 mps 706 mmHg 99%
15:00 +4°C° 0 mm 1 mps 706 mmHg 95%
16:00 +3°C° 0 mm 1 mps 706 mmHg 90%
17:00 +3°C° 0 mm 1 mps 705 mmHg 85%
18:00 +3°C° 0 mm 1 mps 705 mmHg 81%
19:00 +2°C° 0 mm 1 mps 705 mmHg 77%
20:00 +2°C° 0 mm 1 mps 705 mmHg 72%
21:00 +2°C° 0 mm 1 mps 705 mmHg 70%
22:00 +1°C° 0 mm 1 mps 704 mmHg 68%
23:00 +1°C° 0 mm 1 mps 704 mmHg 65%

Day after tomorrow, 10 March, Wednesday

Time Temperature Precipitation Wind Pressure Humidity
00:00 +1°C° 0 mm 1 mps 704 mmHg 63%
01:00 +1°C° 0 mm 1 mps 703 mmHg 61%
02:00 +1°C° 0 mm 1 mps 703 mmHg 59%
03:00 -1°C° 0 mm 2 mps 702 mmHg 57%
04:00 -1°C° 0 mm 2 mps 702 mmHg 54%
05:00 +1°C° 0 mm 2 mps 702 mmHg 52%
06:00 +1°C° 0 mm 2 mps 701 mmHg 54%
07:00 +2°C° 0 mm 2 mps 701 mmHg 57%
08:00 +3°C° 0 mm 2 mps 701 mmHg 60%
09:00 +4°C° 0 mm 2 mps 700 mmHg 70%
10:00 +4°C° 0 mm 2 mps 700 mmHg 81%
11:00 +6°C° 0 mm 1 mps 700 mmHg 92%
12:00 +6°C° 0 mm 1 mps 700 mmHg 93%
13:00 +6°C° 0 mm 1 mps 700 mmHg 94%
14:00 +7°C° 0 mm 1 mps 700 mmHg 94%
15:00 +6°C° 0 mm 1 mps 700 mmHg 85%
16:00 +5°C° 0 mm 2 mps 700 mmHg 76%
17:00 +5°C° 0 mm 2 mps 700 mmHg 66%
18:00 +5°C° 0 mm 2 mps 701 mmHg 64%
19:00 +3°C° 0 mm 3 mps 701 mmHg 61%
20:00 +3°C° 0 mm 3 mps 702 mmHg 58%
21:00 +3°C° 0 mm 3 mps 702 mmHg 57%
22:00 +3°C° 0 mm 3 mps 702 mmHg 56%
23:00 +3°C° 0 mm 3 mps 702 mmHg 55%

11 March, Thursday

Time Temperature Precipitation Wind Pressure Humidity
00:00 +3°C° 0 mm 3 mps 702 mmHg 58%
01:00 +4°C° 0 mm 3 mps 702 mmHg 60%
02:00 +5°C° 0 mm 2 mps 701 mmHg 62%
03:00 +4°C° 0 mm 2 mps 701 mmHg 64%
04:00 +4°C° 0 mm 2 mps 701 mmHg 66%
05:00 +4°C° 0 mm 1 mps 701 mmHg 68%
06:00 +2°C° 0.5 mm 3 mps 701 mmHg 78%
07:00 0°C° 0.5 mm 4 mps 702 mmHg 88%
08:00 -1°C° 0.5 mm 5 mps 702 mmHg 98%
09:00 -2°C° 1.5 mm 6 mps 703 mmHg 98%
10:00 -2°C° 1.5 mm 6 mps 704 mmHg 98%
11:00 -3°C° 1.5 mm 6 mps 705 mmHg 98%
12:00 -2°C° 1 mm 5 mps 706 mmHg 98%
13:00 -2°C° 1 mm 5 mps 706 mmHg 97%
14:00 -2°C° 1 mm 4 mps 707 mmHg 97%
15:00 -2°C° 0.1 mm 3 mps 707 mmHg 96%
16:00 -2°C° 0.1 mm 2 mps 707 mmHg 94%
17:00 -1°C° 0.1 mm 1 mps 707 mmHg 93%
18:00 -1°C° 0 mm 1 mps 707 mmHg 90%
19:00 -2°C° 0 mm 1 mps 708 mmHg 87%
20:00 -2°C° 0 mm 1 mps 708 mmHg 84%
21:00 -2°C° 0 mm 1 mps 708 mmHg 81%
22:00 -2°C° 0 mm 1 mps 708 mmHg 78%
23:00 -4°C° 0 mm 2 mps 708 mmHg 75%

12 March, Friday

Time Temperature Precipitation Wind Pressure Humidity
00:00 -3°C° 0 mm 2 mps 707 mmHg 71%
01:00 -3°C° 0 mm 2 mps 707 mmHg 67%
02:00 -3°C° 0 mm 2 mps 706 mmHg 64%
03:00 -3°C° 0 mm 2 mps 706 mmHg 62%
04:00 -3°C° 0 mm 2 mps 705 mmHg 59%
05:00 -1°C° 0 mm 1 mps 705 mmHg 57%
06:00 -1°C° 0 mm 1 mps 705 mmHg 60%
07:00 0°C° 0 mm 1 mps 705 mmHg 63%
08:00 0°C° 0 mm 1 mps 705 mmHg 65%
09:00 +1°C° 0 mm 1 mps 705 mmHg 74%
10:00 +2°C° 0 mm 1 mps 704 mmHg 82%
11:00 +3°C° 0 mm 1 mps 704 mmHg 90%
12:00 +3°C° 0 mm 1 mps 704 mmHg 91%
13:00 +3°C° 0 mm 1 mps 703 mmHg 91%
14:00 +3°C° 0 mm 1 mps 702 mmHg 92%
15:00 +2°C° 0 mm 1 mps 702 mmHg 88%
16:00 +1°C° 0 mm 1 mps 702 mmHg 84%
17:00 -1°C° 0 mm 0 mps 702 mmHg 80%
18:00 0°C° 0 mm 1 mps 702 mmHg 77%
19:00 0°C° 0 mm 1 mps 702 mmHg 74%
20:00 0°C° 0 mm 1 mps 702 mmHg 70%
21:00 0°C° 0 mm 1 mps 701 mmHg 69%
22:00 -1°C° 0 mm 1 mps 701 mmHg 68%
23:00 -1°C° 0 mm 1 mps 701 mmHg 67%

13 March, Saturday

Time Temperature Precipitation Wind Pressure Humidity
00:00 -1°C° 0 mm 1 mps 701 mmHg 67%
01:00 -1°C° 0 mm 1 mps 700 mmHg 67%
02:00 -1°C° 0 mm 1 mps 700 mmHg 67%
03:00 -1°C° 0 mm 1 mps 700 mmHg 70%
04:00 -2°C° 0 mm 1 mps 700 mmHg 74%
05:00 -4°C° 0 mm 0 mps 700 mmHg 78%
06:00 -3°C° 0 mm 0 mps 701 mmHg 78%
07:00 -2°C° 0 mm 0 mps 701 mmHg 79%
08:00 -2°C° 0 mm 0 mps 701 mmHg 80%
09:00 0°C° 0 mm 1 mps 701 mmHg 81%
10:00 0°C° 0 mm 1 mps 701 mmHg 83%
11:00 +1°C° 0 mm 1 mps 701 mmHg 84%
12:00 +1°C° 0 mm 1 mps 701 mmHg 86%
13:00 +1°C° 0 mm 1 mps 701 mmHg 89%
14:00 +1°C° 0 mm 1 mps 702 mmHg 91%
15:00 +1°C° 0 mm 1 mps 701 mmHg 92%
16:00 0°C° 0 mm 1 mps 701 mmHg 93%
17:00 -1°C° 0 mm 1 mps 701 mmHg 94%
18:00 -1°C° 0 mm 1 mps 701 mmHg 94%
19:00 -2°C° 0 mm 1 mps 701 mmHg 94%
20:00 -3°C° 0 mm 0 mps 701 mmHg 93%
21:00 -3°C° 0 mm 0 mps 701 mmHg 93%
22:00 -3°C° 0 mm 1 mps 701 mmHg 92%
23:00 -3°C° 0 mm 1 mps 701 mmHg 91%
Show more

We Need Your Consent

Meteoprog and our Service Providers may store and access personal data such as cookies, device identifiers or other similar technologies on your device and process such data to personalise content and ads, as well as provide social media features and to analyse the traffic.

  • Store and/or access information on your device

    Cookies, device identifiers or other information can be stored or accessed on your device for the purposes indicated above.

  • Personalised ads and content, ad and content measurement, audience insights, and products development

    Ads and content can be personalised based on a profile. More data can be added to better personalise ads and content. Ad and content performance can be measured. Insights about the audience who saw the ads and content can be derived. Such data can be used to develop or improve user’s experience, systems and software.

By clicking ‘I Agree’ you will allow the use of indicated cookies, device identifiers, web beacons or other similar technologies. Your settings can be changed in the browser on your device.

For certain purposes, legitimate interests may be relied on, rather than consent. You can read more about this in our Privacy and Cookie Policy.